www.pogodaiklimat.ru

Погода и климат >> Архив погоды >> Алжир >> Бордж Моктар


ПОГОДА в Бордж Моктар

  • Прогноз погоды в Бордж Моктар
  • Монитор погоды в Бордж Моктар

АРХИВ ПОГОДЫ в Бордж Моктар

Время (UTC), дата Ветер
(напр.,м/с)
 
Видим.   Явления Облачность Т
(С)
Тd
(С)
f
(%)
Тe
(С)
Тes
(С)
Комфортность P
(гПа)
Po
(гПа)
Тmin
(С)
Tmax
(С)
R
(мм)
R24
(мм)
S
(см)
12 15.05 С 8 10 км ясно +41.2 +2.0 9 +38 +41 очень
жарко
1007.3 964.5
15 15.05 СЗ 5 2000 м гроза без осадков 9/5 1200 м
[Cb cap Ac trans]
+41.6 +15.6 24 +37 +43 очень
жарко
1004.5 961.9
18 15.05 С 7 10 км ясно +39.1 +34 +34 очень
жарко
1006.1 963.1 +42.0
06 16.05 ЮВ 2 10 км 3/0
[Ci sp]
+25.2 -1.7 17 +23 +24 комфорт 1007.4 962.4 +25.2
09 16.05 В 6 10 км 4/0
[Ci sp]
+36.6 +1.7 11 +33 +38 жарко 1007.8 964.4
12 16.05 СВ 2 10 км 4/0
[Ci sp]
+42.0 +37 +57 опасность
солнечного
удара
1007.1 964.5
15 16.05 С 5 10 км 4/0
[Ci sp]
+42.2 +5.8 11 +39 +45 очень
жарко
1005.4 962.9
18 16.05 С 5 10 км 4/0
[Ci sp]
+40.7 +36 +36 очень
жарко
1005.5 962.7 +43.1
06 17.05 Ю 4 10 км ясно +25.7 -1.4 17 +24 +24 комфорт 1006.7 961.8 +25.6
09 17.05 Ю 5 10 км ясно +35.7 -0.3 10 +32 +39 жарко 1007.7 964.2
12 17.05 Ю 3 10 км ясно +42.2 +37 +55 опасность
солнечного
удара
1006.0 963.4
15 17.05 С 2 10 км ясно +43.6 +39 +50 очень
жарко
1004.3 962.0
18 17.05 З 5 10 км 1/0
[Ci sp]
+41.5 +36 +37 очень
жарко
1004.1 961.5 +44.0
06 18.05 Ю 2 10 км ясно +26.4 +1.0 19 +25 +25 комфорт 1004.7 960.0 +26.3
09 18.05 З 3 10 км ясно +35.9 +31 +41 жарко 1006.3 962.9
12 18.05 ЮЗ 3 10 км ясно +42.4 +37 +56 опасность
солнечного
удара
1005.2 962.7
15 18.05 штиль 0 10 км ясно +43.4 +38 +55 опасность
солнечного
удара
1002.8 960.5
18 18.05 СЗ 3 10 км ясно +41.7 +37 +37 очень
жарко
1003.3 960.8 +44.2
06 19.05 Ю 3 8000 м ясно +26.3 0.0 18 +24 +25 комфорт 1003.4 958.7 +26.2
09 19.05 З 8 2000 м пыльный позёмок 1/0
[Ci sp]
+35.5 +3.0 13 +32 +34 жарко 1004.7 961.3
12 19.05 З 7 3500 м пыль 1/0
[Ci sp]
+41.7 +2.4 9 +38 +44 очень
жарко
1003.7 961.2
15 19.05 З 6 8000 м ясно +43.4 +38 +43 очень
жарко
1001.9 959.7
18 19.05 СЗ 6 3000 м пыль ясно +41.5 +36 +37 очень
жарко
1001.9 959.4 +44.5
06 20.05 СЗ 7 2500 м пыль 4/0
[Ac trans Ci sp]
+30.5 +11.1 30 +31 +31 жарко 1005.4 961.2 +30.4
09 20.05 СЗ 11 600 м пыльный позёмок ?/? +31.7 +14.9 36 +34 +34 душно 1007.8 963.7
12 20.05 СЗ 13 600 м пыльный позёмок ?/? +31.5 +19.6 49 +37 +37 очень
душно
1008.6 964.5
15 20.05 СЗ 12 600 м пыльный позёмок ?/? +31.9 +18.3 44 +36 +36 очень
душно
1006.8 962.8
18 20.05 СЗ 8 600 м пыльный позёмок ?/? +29.6 +18.2 50 +34 +34 очень
душно
1007.5 963.1 +38.5
06 21.05 В 3 1500 м пыль ясно +23.4 +15.7 62 +28 +28 душно 1008.8 963.5 +23.3
09 21.05 штиль 0 3500 м пыль ясно +31.2 +15.3 38 +34 +51 опасность
солнечного
удара
1009.3 965.1
12 21.05 ЮЗ 5 6000 м ясно +35.4 +14.3 28 +36 +48 очень
жарко
1008.1 964.5
15 21.05 ЮЗ 3 6000 м ясно +37.4 +14.7 26 +38 +49 душно 1005.4 962.2
18 21.05 З 7 6000 м ясно +36.7 +13.1 24 +37 +37 очень
жарко
1005.6 962.3 +38.7
06 22.05 ЮВ 2 8000 м ясно +25.4 +12.4 44 +27 +28 жарко 1007.1 962.1 +25.0
09 22.05 ЮВ 2 8000 м ясно +34.2 0.0 11 +31 +44 жарко 1008.5 964.7

 

Местоположение метеостанции Бордж Моктар (Алжир): широта 21.33 долгота 0.95 высота над уровнем моря 399 м.

В архиве по умолчанию представлена погода в Бордж Моктар за последнюю неделю. Архивные данные за месяц целиком и за предыдущие месяцы, начиная с января 2011 года, Вы можете получить, выбрав интересующий диапазон дат из раскрывающегося списка и нажав кнопку "Ввод!".


*Определитесь, кто Вы:
робот инопланетянин человек

Внимание! Время в таблицах - всемирное. Для получения местного времени необходимо прибавить поправку, которая равна 1 ч.

Смотрите также архив погоды в соседних городах и на ближайших метеорологических станциях:

Погода в Ин-Зиза (Алжир) (288 км)
Погода в Abankor (Алжир) (414 км)
Погода в Анебарака (Алжир) (440 км)
Погода в Таманрассете (Алжир) (490 км)
Погода в Араке (Алжир) (523 км)
Погода в Assekrem (Алжир) (528 км)
Погода в Moulay Lachen (Алжир) (537 км)
Погода в Ин-Геззаме (Алжир) (537 км)
Погода в Ин-Геззам аэропорту (Алжир) (537 км)
Погода в Mertouek (Алжир) (572 км)

Пояснения к столбцам:

Ветер - указаны скорость ветра в м/с - средняя за 10 мин, порывы в срок и между сроками (в фигурных скобках) и направление, откуда дует ветер: С - северный, СВ - северо-восточный, В - восточный, ЮВ - юго-восточный, Ю - южный, ЮЗ - юго-западный, З - западный, СЗ - северо-западный.
Видимость - горизонтальная дальность видимости в метрах или километрах. При видимости от 1 до 10 км при отсутствии осадков обычно наблюдается дымка, при ухудшении видимости до 1 км и менее - туман. В сухую погоду видимость может ухудшаться дымом, пылью или мглою.
Явления - указаны атмосферные явления, наблюдавшиеся в срок или в последний час перед сроком; фигурными скобками обозначены явления, наблюдавшиеся между сроками (за 1-3 часа до срока); квадратными скобками обозначены град или гололедные отложения с указанием их диаметра в мм.
Облачность - указаны через наклонную черту общая и нижняя облачность в баллах и высота нижней границы облаков в метрах; квадратными скобками обозначены формы облаков: Ci - перистые, Cs - перисто-слоистые, Cc - перисто-кучевые, Ac - высококучевые, As - высокослоистые, Sc - слоисто-кучевые, Ns - слоисто-дождевые, Cu - кучевые, Cb - кучево-дождевые. Подробнее классификацию облаков см. в Атласе облаков (PDF).
T - Температура воздуха - температура, измеренная на высоте 2 м над землей.
Td - Температура точки росы - температура, при понижении до которой содержащийся в воздухе водяной пар достигнет насыщения.
f - Относительная влажность воздуха - влажноcть воздуха, измеренная на высоте 2 м над землей.
Te - Эффективная температура - температура, которую ощущает одетый по сезону человек в тени. Характеристика душности погоды. При расчете учитывается влияние влажности воздуха и скорости ветра на теплоощущения человека.
Tes - Эффективная температура на солнце - температура, которую ощущает человек, с поправкой на солнечный нагрев. Характеристика знойности погоды. Зависит от высоты солнца над горизонтом, облачности и скорости ветра. Ночью, в пасмурную погоду, а также при ветре 12 м/с и более поправка равна нулю.
P - Атмосферное давление - приведенное к уровню моря атмосферное давление.
Po - Атмосферное давление - измеренное на уровне метеостанции атмосферное давление.
Tmin - Минимальная температура - минимум температуры воздуха на высоте 2 м над землей.
Tmax - Максимальная температура - максимум температуры воздуха на высоте 2 м над землей.
R - Количество осадков - Количество выпавших осадков за период времени, мм. При наведении курсора мыши на число - период времени, за который выпало указанное количество осадков.
R24 - Количество осадков - Количество выпавших осадков за 24 часа, мм.
S - Снежный покров - Высота снежного покрова, см. При наведении курсора мыши на число - состояние снежного покрова и степень покрытия местности в баллах.